Weather History for Fayetteville, AR

Change the Weather History Date:

Friday, November 9, 2012

  Actual Average Record
Temperature  
Mean Temperature 64 °F 50 °F  
Max Temperature 72 °F 62 °F 83 °F (2006)
Min Temperature 55 °F 39 °F 14 °F (1991)
Degree Days  
Heating Degree Days 2 15  
Month to date heating degree days 121  
Since 1 July heating degree days 421  
Growing Degree Days 14 (Base 50)    
Moisture  
Dew Point 52 °F    
Average Humidity 66    
Maximum Humidity 80    
Minimum Humidity 57    
Precipitation  
Precipitation 0.00 in 0.14 in 0.56 in (1952)
Month to date precipitation 1.29  
Year to date precipitation 42.33  
Sea Level Pressure  
Sea Level Pressure 29.97 in    
Wind  
Wind Speed 11 mph (South)    
Max Wind Speed 21 mph    
Max Gust Speed 29 mph    
Visibility 10 miles    
Events      
T = Trace of Precipitation, MM = Missing Value Source: NWS Daily Summary

Daily Weather History Graph

Daily Weather History Graph

Search for Another Location

Airport:

Trip Planner

Search our weather history database for the weather conditions in past years. The results will help you decide how hot, cold, wet, or windy it might be!

Date:

Astronomy

Nov. 09, 2012 Rise Set
Actual Time 6:47 AM CST 5:13 PM CST
Civil Twilight 6:20 AM CST 5:39 PM CST
Nautical Twilight 5:49 AM CST 6:10 PM CST
Astronomical Twilight 5:19 AM CST 6:40 PM CST
Moon 1:55 AM CST (11/9) 2:19 PM CST (11/9)
Length of Visible Light 11h 19m
Length of Day
10h 25m
Waning Crescent, 23% of the Moon is Illuminated
Nov 9
Waning Crescent
Nov 13
New
Nov 20
First Quarter
Nov 28
Full
Dec 6
Last Quarter

Hourly Weather History & Observations

Time (CST) Temp. Dew Point Humidity Pressure Visibility Wind Dir Wind Speed Gust Speed Precip Events Conditions
12:53 AM 55.9 °F 42.1 °F 60% 29.99 in 10.0 mi Calm Calm - N/A   Clear
1:53 AM 55.0 °F 43.0 °F 64% 29.98 in 10.0 mi SSW 6.9 mph - N/A   Clear
2:53 AM 55.9 °F 44.1 °F 64% 29.98 in 10.0 mi South 8.1 mph - N/A   Clear
3:53 AM 57.0 °F 44.1 °F 62% 29.98 in 10.0 mi South 13.8 mph 24.2 mph N/A   Clear
4:53 AM 57.0 °F 46.0 °F 67% 29.99 in 10.0 mi SSW 15.0 mph 20.7 mph N/A   Clear
5:53 AM 57.0 °F 48.0 °F 72% 30.00 in 10.0 mi SSW 11.5 mph 21.9 mph N/A   Clear
6:53 AM 55.9 °F 50.0 °F 80% 30.01 in 10.0 mi SSW 12.7 mph 23.0 mph N/A   Clear
7:53 AM 59.0 °F 52.0 °F 78% 30.02 in 10.0 mi SSW 15.0 mph - N/A   Partly Cloudy
8:53 AM 63.0 °F 55.0 °F 75% 30.02 in 10.0 mi SSW 13.8 mph 20.7 mph N/A   Partly Cloudy
9:53 AM 63.0 °F 55.0 °F 75% 30.02 in 10.0 mi South 17.3 mph 25.3 mph N/A   Scattered Clouds
10:53 AM 68.0 °F 55.9 °F 65% 30.01 in 10.0 mi South 19.6 mph 26.5 mph N/A   Partly Cloudy
11:53 AM 68.0 °F 55.0 °F 63% 29.99 in 10.0 mi SSW 13.8 mph 27.6 mph N/A   Clear
12:53 PM 68.0 °F 55.0 °F 63% 29.95 in 10.0 mi South 16.1 mph 25.3 mph N/A   Clear
1:53 PM 72.0 °F 55.9 °F 57% 29.93 in 10.0 mi South 20.7 mph 28.8 mph N/A   Clear
2:53 PM 72.0 °F 55.9 °F 57% 29.91 in 10.0 mi South 18.4 mph 25.3 mph N/A   Partly Cloudy
3:53 PM 71.1 °F 55.0 °F 57% 29.90 in 10.0 mi South 17.3 mph 25.3 mph N/A   Clear
4:53 PM 68.0 °F 55.0 °F 63% 29.91 in 10.0 mi SSE 11.5 mph 24.2 mph N/A   Clear
5:53 PM 66.9 °F 55.0 °F 66% 29.92 in 10.0 mi South 12.7 mph - N/A   Clear
6:53 PM 66.9 °F 55.0 °F 66% 29.92 in 10.0 mi South 16.1 mph 23.0 mph N/A   Clear
7:53 PM 66.0 °F 55.0 °F 68% 29.94 in 10.0 mi South 16.1 mph 24.2 mph N/A   Clear
8:53 PM 66.0 °F 54.0 °F 65% 29.94 in 10.0 mi South 13.8 mph 23.0 mph N/A   Clear
9:53 PM 64.0 °F 53.1 °F 67% 29.94 in 10.0 mi South 12.7 mph - N/A   Clear
10:53 PM 64.4 °F 51.8 °F 64% 29.97 in 10.0 mi South 12.7 mph 21.9 mph N/A   Clear
11:53 PM 63.0 °F 51.1 °F 65% 29.94 in 10.0 mi South 11.5 mph 19.6 mph N/A   Clear